Home > Weather > Plauen > Past weeks

Flag for Germany Weather for the Past 2 Weeks in Plauen, Saxony, Germany

Now
34 °F

Passing clouds.


Feels Like: 28 °F
Forecast: 34 / 41 °F
Wind: 7 mph from West

Location: Karlovy Vary Airport

Current Time: Feb 10, 2016 at 6:23:34 AM

Latest Report: Feb 10, 2016 at 5:00 AM


Visibility: N/A

Pressure: 29.27 "Hg

Humidity: 87%

Dew point: 30 °F

Location of PlauenLocation

Historic Weather in Plauen — Graph

°F

Plauen Temperature Yesterday

Maximum temperature yesterday: 45 °F (at 12:30 PM)
Minimum temperature yesterday: 39 °F (at 12:00 AM)
Average temperature yesterday: 41 °F

High & Low Weather Summary for the Past Weeks

 TemperatureHumidityPressure
High50 °F (Jan 27, 1:00 PM)100% (Jan 26, 5:00 AM)30.33 "Hg (Jan 26, 5:00 AM)
Low30 °F (Jan 28, 7:00 PM)46% (Jan 29, 2:30 PM)29.15 "Hg (Feb 9, 8:00 PM)
Average39 °F83%29.96 "Hg
* Reported Jan 26 5:00 AM — Feb 10 5:00 AM, Plauen, Weather by CustomWeather, © 2016

Note: Actual official high and low records may vary slightly from our data, if they occured in-between our weather recording intervals... More about our weather records

Advertising

Plauen Weather History for the Previous 24 Hours

 ConditionsComfort  
Time TempWeatherWind HumidityBarometerVisibility
5:00 AM
Wed, Feb 10
34 °FPassing clouds.7 mph87%29.27 "HgN/A
4:00 AM34 °FPassing clouds.6 mph87%29.24 "HgN/A
3:00 AM36 °FPartly cloudy.9 mph87%29.24 "HgN/A
2:00 AM36 °FPassing clouds.10 mph93%29.24 "HgN/A
1:00 AM37 °FLight rain. Passing clouds.14 mph87%29.21 "HgN/A
12:00 AM39 °FPassing clouds.15 mph81%29.18 "HgN/A
11:00 PM
Tue, Feb 9
39 °FPassing clouds.9 mph87%29.15 "HgN/A
10:00 PM41 °FLight rain. Passing clouds.10 mph87%29.18 "HgN/A
9:00 PM43 °FLight rain. Passing clouds.7 mph93%29.15 "HgN/A
8:00 PM43 °FLight rain. Passing clouds.8 mph87%29.15 "HgN/A
7:30 PM43 °FLight rain. Passing clouds.7 mph87%29.18 "HgN/A
7:00 PM43 °FLight rain. Passing clouds.6 mph87%29.21 "HgN/A
6:30 PM43 °FLight rain. Passing clouds.7 mph87%29.21 "HgN/A
6:00 PM41 °FLight rain. Mostly cloudy.7 mph93%29.24 "HgN/A
5:00 PM43 °FLight rain. More clouds than sun.8 mph87%29.27 "HgN/A
4:30 PM41 °FLight rain. Mostly cloudy.5 mph93%29.27 "HgN/A
4:00 PM41 °FLight rain. Cloudy.5 mph93%29.30 "HgN/A
3:30 PM41 °FLight rain. More clouds than sun.7 mph93%29.30 "HgN/A
3:00 PM39 °FLight rain. Broken clouds.3 mph93%29.36 "HgN/A
2:00 PM39 °FLight rain. Partly sunny.3 mph93%29.39 "HgN/A
1:30 PM41 °FLight rain. Partly sunny.7 mph87%29.42 "HgN/A
1:00 PM45 °FLight rain. Partly sunny.9 mph71%29.45 "HgN/A
12:30 PM45 °FScattered clouds.10 mph71%29.47 "HgN/A
12:00 PM43 °FPartly sunny.10 mph71%29.50 "HgN/A
11:00 AM41 °FPartly sunny.10 mph76%29.53 "HgN/A
10:30 AM41 °FPartly sunny.13 mph76%29.53 "HgN/A
10:00 AM41 °FScattered clouds.12 mph76%29.53 "HgN/A
9:00 AM41 °FPassing clouds.13 mph76%29.56 "HgN/A
8:30 AM39 °FBroken clouds.13 mph81%29.59 "HgN/A
8:00 AM39 °FBroken clouds.9 mph81%29.59 "HgN/A
7:00 AM39 °FPassing clouds.13 mph75%29.59 "HgN/A
6:00 AM39 °FPassing clouds.14 mph75%29.56 "HgN/A
Weather by CustomWeather, © 2016

See weather overviewHow to use our weather pages